Location: ???????????
(55.5758°N, 38.4970°E)
Time: 18:16:22
(UTC+00:00)

Cosmos 2084 - Pass Details

Date: 15 November 2025
Orbit: 529 x 573 km, 62.8° (Epoch: 14 December)

Event Time Altitude Azimuth Distance (km) Brightness Sun altitude
Exits shadow 03:29:44 19° 297° (WNW) 1,328 4.7 -12.6°
Maximum altitude 03:32:27 56° 225° (SW) 650 3.5 -12.2°
Drops below altitude 10° 03:36:23 10° 147° (SSE) 1,788 6.7 -11.7°
Sets 03:38:35 0° 143° (SE) 2,670 7.8 -11.4°
